Tracking 27380 objects as of 5-Jun-2023
HD Live streaming from Space Station
objects crossing your sky now

COSMOS 1375 DEB

Track COSMOS 1375 DEB now!
10-day predictions


NORAD ID: 16206
Int'l Code: 1982-055H
Perigee: 974.1 km
Apogee: 1,014.2 km
Inclination: 65.8 °
Period: 104.8 minutes
Semi major axis: 7365 km
RCS: 0.4888 m2 (medium)
Launch date: June 6, 1982
Source: Commonwealth of Independent States (former USSR) (CIS)
Launch site: PLESETSK MISSILE AND SPACE COMPLEX (PKMTR)

Note: This is SATELLITE DEBRIS
Your satellite tracking list
Your tracking list is empty




NASA's NSSDC Master Catalog

Two Line Element Set (TLE):
1 16206U 82055H   23156.48652412  .00000082  00000-0  17339-3 0  9990
2 16206  65.8359  53.3456 0027229 239.6914 293.8386 13.73504141 54215
Source of the keplerian elements: AFSPC